Regional Weather Roundup
Issued by NWS Bismarck, ND

Home | Current Version | Previous Version | Text Only | Print | Product List | Glossary On
Versions: 1 2 3 4 5 6 7 8 9 10 11 12 13 14 15 16 17 18 19 20 21 22 23 24 25 26 27 28 29 30 31 32 33 34 35 36 37 38 39 40 41 42 43 44 45 46 47 48 49 50
000
ASUS43 KBIS 030302
RWRBIS

NWR BROADCAST TEXT
NATIONAL WEATHER SERVICE BISMARCK ND
1000 PM CDT SUN AUG 02 2015

NOTE: "FAIR" INDICATES FEW OR NO CLOUDS BELOW 12,000 FEET WITH NO
SIGNIFICANT WEATHER AND/OR OBSTRUCTIONS TO VISIBILITY.


CITY           SKY/WX    TMP DP  RH WIND       PRES   REMARKS
WILLISTON      CLEAR     70  47  43 N8        29.99R
MINOT          CLEAR     66  48  52 NW10      29.94R
MINOT AFB      NOT AVBL
BISMARCK       CLEAR     71  51  49 N5        29.95R
DICKINSON      CLEAR     65  49  56 NE5       29.99R
GARRISON         N/A     62  54  74 NW5       29.95R
HETTINGER ARPT CLEAR     64  48  56 NE8       30.01R
JAMESTOWN      CLEAR     62  52  69 NW9       29.91R
HAZEN          FAIR      59  50  72 SE3       29.97R
OAKES            N/A     63  59  88 W3        29.91R
STANLEY        FAIR      63  52  67 NW8       29.99R
$$

CITY           SKY/WX    TMP DP  RH WIND       PRES   REMARKS
GRAND FORKS    CLEAR     59  50  72 W8        29.84R
GRAND FORKS AF NOT AVBL
DEVILS LAKE    CLEAR     61  46  59 NW7       29.90R
FARGO          CLEAR     64  52  64 W7        29.85R
CAVALIER       FAIR      59  50  72 NW3       29.85R
GRAFTON        FAIR      68  52  56 W10       29.84S
GWINNER        FAIR      63  54  72 W5        29.90R
LANGDON        FAIR      59  48  67 NW9       29.89R
$$

CITY           SKY/WX    TMP DP  RH WIND       PRES   REMARKS
ABERDEEN       CLEAR     68  58  70 N3        29.91R
MOBRIDGE       CLEAR     70  56  61 NE9       29.93R
BUFFALO          N/A     70  51  51 NE9       29.96R
RAPID CITY     CLEAR     70  54  56 NE10      30.01R
GLASGOW        CLEAR     70  47  43 NE10      29.99R
SIDNEY         CLEAR    N/A N/A N/A N8        29.98R
WOLF POINT     CLEAR     73  46  38 NE7       30.00R
GLENDIVE         N/A    N/A N/A N/A MISG        N/A
MILES CITY     PTCLDY    76  49  38 E8        29.99R
BAKER          CLEAR     67  48  50 E5        30.03R
$$

CITY           SKY/WX    TMP DP  RH WIND       PRES   REMARKS
BILLINGS       PTCLDY    79  42  26 NE8       30.00R
GREAT FALLS    CLEAR     77  46  33 E9        29.95S
$$



USA.gov is the U.S. government's official web portal to all federal, state and local government web resources and services.